This is the latest recevied weather packets stored in our database for station/object KB0Y. If no packets are shown the sender has not sent any weather packets the latest 10 day(s).
| Time | Temp. | Humidity | Pressure | Rain* | Wind** | Luminosity | Snow |
|---|---|---|---|---|---|---|---|
| 1778087696 | 28.89° C | 62% | 1021 hPa | 0 mm | - | 601 W/m² | - |
| 1778087393 | 28.89° C | 66% | 1021 hPa | 0 mm | - | 549 W/m² | - |
| 1778087089 | 28.89° C | 66% | 1021 hPa | 0 mm | - | 516 W/m² | - |
| 1778086783 | 28.89° C | 67% | 1021 hPa | 0 mm | - | 587 W/m² | - |
| 1778086481 | 28.89° C | 66% | 1021 hPa | 0 mm | - | 601 W/m² | - |
| 1778086177 | 28.89° C | 68% | 1021 hPa | 0 mm | - | 619 W/m² | - |
| 1778085873 | 28.33° C | 68% | 1021.3 hPa | 0 mm | - | 609 W/m² | - |
| 1778085565 | 28.33° C | 71% | 1021.3 hPa | 0 mm | - | 256 W/m² | - |
| 1778085260 | 28.33° C | 68% | 1021.6 hPa | 0 mm | - | 219 W/m² | - |
| 1778084955 | 28.33° C | 71% | 1021.3 hPa | 0 mm | - | 662 W/m² | - |
| 1778084653 | 28.33° C | 69% | 1021 hPa | 0 mm | - | 563 W/m² | - |
| 1778084345 | 28.33° C | 69% | 1021.3 hPa | 0 mm | - | 562 W/m² | - |
| 1778084043 | 27.78° C | 68% | 1021.3 hPa | 0 mm | - | 563 W/m² | - |
| 1778083740 | 27.78° C | 71% | 1021.3 hPa | 0 mm | - | 575 W/m² | - |
| 1778083436 | 27.78° C | 71% | 1021.3 hPa | 0 mm | - | 503 W/m² | - |
| 1778083134 | 27.78° C | 71% | 1021.6 hPa | 0 mm | - | 542 W/m² | - |
| 1778082831 | 27.78° C | 71% | 1021.3 hPa | 0 mm | - | 485 W/m² | - |
| 1778081708 | 27.22° C | 71% | 1021.3 hPa | 0 mm | - | 471 W/m² | - |
| 1778081406 | 26.67° C | 73% | 1021.3 hPa | 0 mm | - | 474 W/m² | - |
| 1778081103 | 26.67° C | 73% | 1021 hPa | 0 mm | - | 448 W/m² | - |
| 1778080801 | 26.67° C | 74% | 1021.3 hPa | 0 mm | - | 421 W/m² | - |
| 1778080498 | 26.67° C | 74% | 1021 hPa | 0 mm | - | 557 W/m² | - |
| 1778080195 | 26.67° C | 76% | 1021 hPa | 0 mm | - | 483 W/m² | - |
| 1778079891 | 26.11° C | 77% | 1021 hPa | 0 mm | - | 472 W/m² | - |
| 1778079588 | 26.11° C | 78% | 1021 hPa | 0 mm | - | 527 W/m² | - |
* Rain latest hour (hover to see other rain measurements)
** Current wind speed in m/s (hover to see current wind gust speed)